When you browse on this site, cookies collect data to enhance your experience and personalize the content and advertising you see.
Visit our Privacy Policy to learn more. By continuing to use the site, you agree to this use of cookies and data.
  • In Germany
  • List of Countries
  • For 7 days
  • Water Temperature
  • Weather Map
  • Weather Widgets
  • user-avatar
    Login

    Hourly Weather Escaldes-Engordany

    Today, 23 September, Monday

    Time Temperature Precipitation Wind Pressure Humidity
    00:00 +8°C° 0 mm 2 mps 639 mmHg 94%
    01:00 +7°C° 0 mm 2 mps 639 mmHg 93%
    02:00 +8°C° 0 mm 1 mps 638 mmHg 92%
    03:00 +7°C° 0 mm 1 mps 638 mmHg 91%
    04:00 +7°C° 0 mm 1 mps 638 mmHg 89%
    05:00 +7°C° 0 mm 1 mps 638 mmHg 87%
    06:00 +7°C° 0 mm 1 mps 639 mmHg 86%
    07:00 +9°C° 0 mm 1 mps 640 mmHg 79%
    08:00 +12°C° 0 mm 1 mps 641 mmHg 72%
    09:00 +14°C° 0 mm 1 mps 642 mmHg 65%
    10:00 +15°C° 0 mm 1 mps 642 mmHg 59%
    11:00 +16°C° 0 mm 2 mps 642 mmHg 52%
    12:00 +17°C° 0 mm 2 mps 642 mmHg 46%
    13:00 +17°C° 0 mm 2 mps 642 mmHg 47%
    14:00 +17°C° 0 mm 2 mps 642 mmHg 48%
    15:00 +18°C° 0 mm 1 mps 642 mmHg 49%
    16:00 +15°C° 0 mm 1 mps 641 mmHg 57%
    17:00 +13°C° 0 mm 1 mps 640 mmHg 65%
    18:00 +11°C° 0 mm 0 mps 640 mmHg 73%
    19:00 +10°C° 0 mm 0 mps 640 mmHg 73%
    20:00 +11°C° 0 mm 1 mps 640 mmHg 73%
    21:00 +11°C° 0 mm 1 mps 640 mmHg 73%
    22:00 +11°C° 0 mm 1 mps 640 mmHg 72%
    23:00 +11°C° 0 mm 1 mps 640 mmHg 70%

    Tomorrow, 24 September, Tuesday

    Time Temperature Precipitation Wind Pressure Humidity
    00:00 +11°C° 0 mm 1 mps 640 mmHg 69%
    01:00 +11°C° 0 mm 1 mps 639 mmHg 70%
    02:00 +11°C° 0 mm 1 mps 639 mmHg 70%
    03:00 +11°C° 0 mm 1 mps 639 mmHg 71%
    04:00 +11°C° 0 mm 1 mps 638 mmHg 71%
    05:00 +11°C° 0 mm 1 mps 638 mmHg 72%
    06:00 +11°C° 0 mm 1 mps 638 mmHg 73%
    07:00 +14°C° 0 mm 1 mps 639 mmHg 66%
    08:00 +18°C° 0 mm 1 mps 640 mmHg 58%
    09:00 +20°C° 0 mm 1 mps 642 mmHg 51%
    10:00 +21°C° 0 mm 1 mps 642 mmHg 50%
    11:00 +21°C° 0 mm 2 mps 642 mmHg 48%
    12:00 +23°C° 0 mm 2 mps 642 mmHg 47%
    13:00 +21°C° 0 mm 2 mps 642 mmHg 49%
    14:00 +21°C° 0 mm 2 mps 641 mmHg 50%
    15:00 +20°C° 0 mm 2 mps 641 mmHg 52%
    16:00 +18°C° 0 mm 2 mps 640 mmHg 62%
    17:00 +16°C° 0 mm 1 mps 639 mmHg 72%
    18:00 +14°C° 0 mm 1 mps 639 mmHg 82%
    19:00 +14°C° 0 mm 1 mps 639 mmHg 84%
    20:00 +12°C° 0 mm 0 mps 639 mmHg 85%
    21:00 +11°C° 0 mm 0 mps 639 mmHg 87%
    22:00 +11°C° 0 mm 0 mps 639 mmHg 88%
    23:00 +11°C° 0 mm 0 mps 638 mmHg 89%

    Day after tomorrow, 25 September, Wednesday

    Time Temperature Precipitation Wind Pressure Humidity
    00:00 +10°C° 0 mm 0 mps 638 mmHg 91%
    01:00 +10°C° 0 mm 0 mps 638 mmHg 91%
    02:00 +10°C° 0 mm 0 mps 638 mmHg 92%
    03:00 +10°C° 0 mm 1 mps 638 mmHg 92%
    04:00 +10°C° 0 mm 1 mps 638 mmHg 93%
    05:00 +10°C° 0 mm 1 mps 638 mmHg 93%
    06:00 +10°C° 0 mm 1 mps 638 mmHg 94%
    07:00 +11°C° 0 mm 1 mps 639 mmHg 90%
    08:00 +12°C° 0 mm 1 mps 639 mmHg 86%
    09:00 +14°C° 0 mm 1 mps 640 mmHg 81%
    10:00 +14°C° 0.2 mm 1 mps 640 mmHg 82%
    11:00 +14°C° 0.2 mm 1 mps 640 mmHg 82%
    12:00 +13°C° 0.2 mm 2 mps 640 mmHg 83%
    13:00 +13°C° 0.2 mm 1 mps 640 mmHg 83%
    14:00 +13°C° 0.2 mm 1 mps 640 mmHg 83%
    15:00 +13°C° 0.2 mm 1 mps 640 mmHg 83%
    16:00 +13°C° 0.1 mm 1 mps 639 mmHg 85%
    17:00 +12°C° 0.1 mm 1 mps 639 mmHg 88%
    18:00 +11°C° 0.1 mm 1 mps 639 mmHg 90%
    19:00 +11°C° 0 mm 1 mps 640 mmHg 91%
    20:00 +11°C° 0 mm 1 mps 640 mmHg 92%
    21:00 +10°C° 0 mm 1 mps 640 mmHg 93%
    22:00 +10°C° 0 mm 1 mps 640 mmHg 94%
    23:00 +9°C° 0 mm 1 mps 640 mmHg 94%

    26 September, Thursday

    Time Temperature Precipitation Wind Pressure Humidity
    00:00 +9°C° 0 mm 1 mps 639 mmHg 94%
    01:00 +9°C° 0 mm 1 mps 639 mmHg 94%
    02:00 +8°C° 0 mm 1 mps 639 mmHg 93%
    03:00 +8°C° 0 mm 1 mps 639 mmHg 93%
    04:00 +8°C° 0 mm 1 mps 639 mmHg 92%
    05:00 +8°C° 0 mm 1 mps 639 mmHg 91%
    06:00 +8°C° 0 mm 1 mps 639 mmHg 90%
    07:00 +10°C° 0 mm 1 mps 641 mmHg 81%
    08:00 +13°C° 0 mm 1 mps 642 mmHg 71%
    09:00 +15°C° 0 mm 0 mps 643 mmHg 62%
    10:00 +18°C° 0 mm 1 mps 643 mmHg 59%
    11:00 +19°C° 0 mm 1 mps 644 mmHg 55%
    12:00 +19°C° 0 mm 2 mps 644 mmHg 51%
    13:00 +19°C° 0 mm 2 mps 643 mmHg 53%
    14:00 +20°C° 0 mm 1 mps 643 mmHg 56%
    15:00 +19°C° 0 mm 1 mps 643 mmHg 58%
    16:00 +16°C° 0 mm 1 mps 642 mmHg 67%
    17:00 +14°C° 0 mm 1 mps 641 mmHg 77%
    18:00 +11°C° 0 mm 0 mps 641 mmHg 86%
    19:00 +11°C° 0 mm 0 mps 641 mmHg 87%
    20:00 +12°C° 0 mm 1 mps 641 mmHg 87%
    21:00 +11°C° 0 mm 1 mps 641 mmHg 88%
    22:00 +11°C° 0 mm 1 mps 641 mmHg 87%
    23:00 +11°C° 0 mm 1 mps 641 mmHg 86%

    27 September, Friday

    Time Temperature Precipitation Wind Pressure Humidity
    00:00 +11°C° 0 mm 1 mps 641 mmHg 86%
    01:00 +11°C° 0 mm 1 mps 641 mmHg 85%
    02:00 +11°C° 0 mm 1 mps 641 mmHg 85%
    03:00 +11°C° 0 mm 1 mps 640 mmHg 84%
    04:00 +11°C° 0 mm 1 mps 640 mmHg 84%
    05:00 +11°C° 0 mm 1 mps 640 mmHg 84%
    06:00 +11°C° 0 mm 1 mps 640 mmHg 84%
    07:00 +13°C° 0 mm 1 mps 641 mmHg 77%
    08:00 +15°C° 0 mm 1 mps 642 mmHg 69%
    09:00 +19°C° 0 mm 1 mps 644 mmHg 61%
    10:00 +20°C° 0 mm 1 mps 644 mmHg 59%
    11:00 +20°C° 0 mm 2 mps 644 mmHg 56%
    12:00 +21°C° 0 mm 2 mps 644 mmHg 53%
    13:00 +20°C° 0 mm 2 mps 643 mmHg 56%
    14:00 +19°C° 0 mm 2 mps 643 mmHg 60%
    15:00 +19°C° 0 mm 2 mps 642 mmHg 63%
    16:00 +17°C° 0 mm 2 mps 642 mmHg 71%
    17:00 +15°C° 0 mm 1 mps 642 mmHg 78%
    18:00 +13°C° 0 mm 1 mps 641 mmHg 86%
    19:00 +13°C° 0 mm 1 mps 642 mmHg 88%
    20:00 +13°C° 0 mm 1 mps 642 mmHg 90%
    21:00 +12°C° 0 mm 1 mps 642 mmHg 92%
    22:00 +12°C° 0 mm 1 mps 642 mmHg 93%
    23:00 +11°C° 0 mm 0 mps 642 mmHg 93%

    28 September, Saturday

    Time Temperature Precipitation Wind Pressure Humidity
    00:00 +10°C° 0 mm 0 mps 642 mmHg 94%
    01:00 +10°C° 0 mm 0 mps 642 mmHg 95%
    02:00 +11°C° 0 mm 1 mps 641 mmHg 95%
    03:00 +11°C° 0 mm 1 mps 641 mmHg 95%
    04:00 +11°C° 0 mm 1 mps 641 mmHg 96%
    05:00 +11°C° 0 mm 1 mps 642 mmHg 96%
    06:00 +11°C° 0 mm 1 mps 642 mmHg 96%
    07:00 +13°C° 0 mm 1 mps 642 mmHg 90%
    08:00 +14°C° 0 mm 1 mps 643 mmHg 85%
    09:00 +16°C° 0 mm 1 mps 644 mmHg 79%
    10:00 +17°C° 0 mm 2 mps 644 mmHg 72%
    11:00 +18°C° 0 mm 2 mps 644 mmHg 65%
    12:00 +19°C° 0 mm 2 mps 645 mmHg 59%
    13:00 +19°C° 0 mm 2 mps 644 mmHg 60%
    14:00 +19°C° 0 mm 2 mps 644 mmHg 60%
    15:00 +19°C° 0 mm 2 mps 643 mmHg 61%
    16:00 +17°C° 0 mm 2 mps 642 mmHg 72%
    17:00 +15°C° 0 mm 1 mps 642 mmHg 83%
    18:00 +13°C° 0 mm 1 mps 641 mmHg 94%
    19:00 +13°C° 0 mm 1 mps 641 mmHg 94%
    20:00 +13°C° 0 mm 1 mps 641 mmHg 95%
    21:00 +13°C° 0 mm 1 mps 641 mmHg 95%
    22:00 +13°C° 0 mm 1 mps 641 mmHg 94%
    23:00 +13°C° 0 mm 1 mps 640 mmHg 94%
    Show more